Location: Bourguignon
(49.5441°N, 3.1585°E)
Time: 11:14:28
(UTC+00:00)

Cosmos 2082 Rocket - Pass Details

Date: 15 May 2026
Orbit: 832 x 852 km, 71.0° (Epoch: 6 June)

Event Time Altitude Azimuth Distance (km) Brightness Sun altitude
Rises 20:37:43 0° 220° (SW) 3,410 5.3 -10.0°
Reaches altitude 10° 20:40:13 10° 225° (SW) 2,478 4.6 -10.3°
Maximum altitude 20:45:49 58° 304° (WNW) 993 3.0 -10.9°
Drops below altitude 10° 20:51:28 10° 23° (NNE) 2,487 5.0 -11.5°
Sets 20:53:58 0° 28° (NNE) 3,423 5.7 -11.8°
